Location: G�ndlingen
(48.0142°N, 7.6396°E)
Time: 18:08:44
(UTC+00:00)

NOSS 0 Rocket - Pass Details

Date: 05 July 2020
Orbit: 934 x 955 km, 70.0° (Epoch: 13 August)

Event Time Altitude Azimuth Distance (km) Brightness Sun altitude
Exits shadow 22:07:31 13° 205° (SSW) 2,400 5.7 -16.7°
Maximum altitude 22:13:00 85° 118° (ESE) 947 3.9 -17.0°
Drops below altitude 10° 22:19:12 10° 30° (NNE) 2,666 6.9 -17.3°
Sets 22:21:45 0° 30° (NNE) 3,617 7.6 -17.5°
